Weather History for PAGK - January, 2014

Change the Weather History Date:

Tuesday, January 14, 2014

  Actual Average Record
Temperature  
Mean Temperature 8 °F -  
Max Temperature 21 °F 0 °F 45 °F (2009)
Min Temperature -5 °F -17 °F -50 °F (1970)
Degree Days  
Heating Degree Days 57    
Moisture  
Dew Point 4 °F    
Average Humidity 86    
Maximum Humidity 92    
Minimum Humidity 75    
Precipitation  
Precipitation 0.00 in - - ()
Sea Level Pressure  
Sea Level Pressure 29.19 in    
Wind  
Wind Speed 2 mph (SW)    
Max Wind Speed 8 mph    
Max Gust Speed -    
Visibility 2 miles    
Events Fog , Snow    
Averages and records for this station are not official NWS values.
T = Trace of Precipitation, MM = Missing Value Source: NWS Daily Summary

Daily Weather History Graph

Daily Weather History Graph

Search for Another Location

Airport or City:

Trip Planner

Search our weather history database for the weather conditions in past years. The results will help you decide how hot, cold, wet, or windy it might be!

Date:

Astronomy

Jan. 14, 2014 Rise Set
Actual Time 9:49 AM AKST 3:53 PM AKST
Civil Twilight 8:49 AM AKST 4:52 PM AKST
Nautical Twilight 7:50 AM AKST 5:51 PM AKST
Astronomical Twilight 6:56 AM AKST 6:45 PM AKST
Moon 3:20 PM AKST (1/14) 8:18 AM AKST (1/14)
Length of Visible Light 8h 03m
Length of Day
6h 04m
Waxing Gibbous, 98% of the Moon is Illuminated
Jan 14
Waxing Gibbous
Jan 15
Full
Jan 23
Last Quarter
Jan 30
New
Feb 6
First Quarter

Hourly Weather History & Observations

Time (AKST) Temp. Windchill Dew Point Humidity Pressure Visibility Wind Dir Wind Speed Gust Speed Precip Events Conditions
12:06 AM 1.9 °F - -2.0 °F 83% 29.22 in 1.2 mi Calm Calm - 0.00 in Snow Light Snow
12:53 AM 1.0 °F -6.7 °F -4.0 °F 79% 29.39 in 1.2 mi Variable 3.5 mph - 0.01 in Snow Light Snow
1:53 AM 1.0 °F -12.9 °F -2.9 °F 83% 29.37 in 1.2 mi SE 8.1 mph - 0.00 in Snow Light Snow
2:18 AM 1.0 °F -6.7 °F -2.9 °F 83% 29.18 in 2.0 mi SSE 3.5 mph - 0.01 in Snow Light Snow
2:30 AM 1.0 °F - -2.9 °F 83% 29.18 in 3.0 mi Calm Calm - 0.01 in   Overcast
3:22 AM 1.0 °F - -2.9 °F 83% 29.15 in 4.0 mi Calm Calm - N/A   Overcast
3:53 AM 1.9 °F - -2.0 °F 83% 29.31 in 4.0 mi Calm Calm - N/A   Overcast
4:53 AM 3.0 °F -4.4 °F -2.0 °F 80% 29.28 in 4.0 mi North 3.5 mph - N/A   Haze
5:53 AM 3.0 °F -4.4 °F -0.0 °F 87% 29.24 in 4.0 mi North 3.5 mph - N/A   Overcast
6:53 AM 3.0 °F -4.4 °F -0.9 °F 84% 29.21 in 4.0 mi West 3.5 mph - N/A   Overcast
7:39 AM 3.0 °F - 1.0 °F 91% 29.00 in 3.0 mi Calm Calm - N/A   Overcast
7:44 AM 3.0 °F - -0.0 °F 87% 29.01 in 1.8 mi Calm Calm - N/A   Overcast
7:53 AM 3.0 °F -4.4 °F -0.0 °F 87% 29.18 in 1.8 mi West 3.5 mph - N/A   Overcast
8:51 AM 3.2 °F -6.2 °F 1.4 °F 92% 28.99 in 0.8 mi SE 4.6 mph - N/A   Mist
8:53 AM 3.0 °F -8.0 °F 1.0 °F 91% 29.16 in 0.8 mi SE 5.8 mph - N/A   Mist
9:53 AM 3.9 °F - 1.9 °F 91% 29.13 in 0.5 mi Calm Calm - N/A Fog Light Freezing Fog
10:09 AM 3.9 °F - 1.0 °F 88% 28.95 in - Calm Calm - 0.00 in Snow Light Snow
10:18 AM 3.9 °F -3.4 °F 1.9 °F 91% 28.96 in - SW 3.5 mph - 0.00 in Snow Light Snow
10:53 AM 3.9 °F - -0.0 °F 84% 29.10 in - Calm Calm - 0.00 in Snow Light Snow
11:13 AM 3.9 °F -3.4 °F -0.0 °F 84% 28.93 in - West 3.5 mph - 0.00 in   Overcast
11:36 AM 3.9 °F - 1.0 °F 88% 28.93 in - Calm Calm - 0.00 in   Mostly Cloudy
11:53 AM 3.9 °F - -0.0 °F 84% 29.09 in - Calm Calm - 0.00 in   Partly Cloudy
12:53 PM 3.9 °F -3.4 °F 1.0 °F 88% 29.09 in - South 3.5 mph - N/A   Mostly Cloudy
1:43 PM 6.1 °F -2.8 °F 1.9 °F 83% 28.94 in - West 4.6 mph - N/A   Overcast
1:53 PM 6.1 °F - 1.9 °F 83% 29.09 in - Calm Calm - N/A   Overcast
2:53 PM 7.0 °F - 3.0 °F 84% 29.12 in - Calm Calm - N/A   Overcast
3:44 PM 7.0 °F - 5.0 °F 92% 28.99 in - Calm Calm - N/A   Overcast
3:53 PM 7.0 °F - 5.0 °F 92% 29.14 in - Calm Calm - N/A   Overcast
4:04 PM 7.0 °F - 5.0 °F 92% 28.99 in - Calm Calm - N/A   Overcast
4:53 PM 8.1 °F - 6.1 °F 92% 29.17 in - Calm Calm - N/A   Overcast
5:53 PM 8.1 °F - 6.1 °F 92% 29.21 in - Calm Calm - N/A   Overcast
6:53 PM 9.0 °F - 7.0 °F 92% 29.27 in - Calm Calm - N/A   Overcast
7:17 PM 10.0 °F - 7.0 °F 87% 29.14 in - Calm Calm - N/A   Overcast
7:53 PM 9.0 °F - 7.0 °F 92% 29.33 in - Calm Calm - N/A   Overcast
8:33 PM 10.9 °F 4.7 °F 7.0 °F 84% 29.22 in - West 3.5 mph - N/A   Overcast
8:53 PM 12.0 °F 5.9 °F 8.1 °F 84% 29.40 in - WNW 3.5 mph - N/A   Overcast
9:07 PM 16.0 °F 5.3 °F 12.9 °F 88% 29.26 in - SW 8.1 mph - N/A   Overcast
9:29 PM 21.9 °F 13.4 °F 19.9 °F 92% 29.29 in - SSW 6.9 mph - N/A   Overcast
9:44 PM 21.0 °F 11.4 °F 17.1 °F 85% 29.31 in - SSW 8.1 mph - N/A   Overcast
9:53 PM 19.9 °F 11.1 °F 16.0 °F 85% 29.45 in - SW 6.9 mph - N/A   Overcast
10:53 PM 19.9 °F 12.1 °F 16.0 °F 85% 29.52 in - SSW 5.8 mph - N/A   Overcast
11:09 PM 21.0 °F 14.6 °F 17.1 °F 85% 29.39 in - West 4.6 mph - N/A   Overcast
11:32 PM 21.0 °F 16.2 °F 17.1 °F 85% 29.42 in - West 3.5 mph - N/A   Overcast
11:53 PM 19.9 °F 13.4 °F 17.1 °F 89% 29.57 in - SSE 4.6 mph - N/A   Overcast